Hourly Weather Holovy

Today, 16 April, Friday

Time Temperature Precipitation Wind Pressure Humidity
00:00 +1°C° 0 mm 1 mps 684 mmHg 100%
01:00 +1°C° 0 mm 1 mps 683 mmHg 100%
02:00 -3°C° 0 mm 1 mps 683 mmHg 100%
03:00 -4°C° 0 mm 2 mps 683 mmHg 100%
04:00 -3°C° 0 mm 2 mps 683 mmHg 96%
05:00 -2°C° 0 mm 3 mps 683 mmHg 93%
06:00 -2°C° 0 mm 3 mps 683 mmHg 94%
07:00 -1°C° 0 mm 3 mps 683 mmHg 93%
08:00 -2°C° 0 mm 4 mps 683 mmHg 90%
09:00 -1°C° 0 mm 5 mps 683 mmHg 89%
10:00 0°C° 0 mm 5 mps 684 mmHg 89%
11:00 -1°C° 0 mm 6 mps 684 mmHg 89%
12:00 0°C° 0 mm 7 mps 684 mmHg 89%
13:00 +2°C° 0 mm 7 mps 684 mmHg 89%
14:00 +2°C° 0 mm 6 mps 684 mmHg 89%
15:00 +3°C° 0 mm 7 mps 685 mmHg 89%
16:00 +3°C° 0 mm 7 mps 684 mmHg 90%
17:00 +3°C° 0 mm 6 mps 684 mmHg 87%
18:00 +2°C° 0 mm 6 mps 684 mmHg 89%
19:00 +1°C° 0 mm 6 mps 684 mmHg 90%
20:00 -1°C° 0 mm 6 mps 684 mmHg 92%
21:00 0°C° 0 mm 5 mps 684 mmHg 95%
22:00 0°C° 0 mm 5 mps 684 mmHg 94%
23:00 0°C° 0 mm 5 mps 684 mmHg 94%

Tomorrow, 17 April, Saturday

Time Temperature Precipitation Wind Pressure Humidity
00:00 0°C° 0 mm 5 mps 684 mmHg 93%
01:00 0°C° 0 mm 5 mps 684 mmHg 92%
02:00 0°C° 0 mm 4 mps 684 mmHg 92%
03:00 0°C° 0 mm 4 mps 684 mmHg 94%
04:00 0°C° 0 mm 4 mps 684 mmHg 96%
05:00 +1°C° 0 mm 3 mps 684 mmHg 95%
06:00 0°C° 0 mm 3 mps 684 mmHg 95%
07:00 +1°C° 0 mm 3 mps 685 mmHg 97%
08:00 +3°C° 0 mm 3 mps 686 mmHg 95%
09:00 +4°C° 0 mm 3 mps 686 mmHg 94%
10:00 +5°C° 0 mm 4 mps 687 mmHg 94%
11:00 +6°C° 0 mm 4 mps 687 mmHg 93%
12:00 +8°C° 0 mm 3 mps 687 mmHg 90%
13:00 +8°C° 0 mm 2 mps 687 mmHg 88%
14:00 +8°C° 0.3 mm 2 mps 687 mmHg 96%
15:00 +7°C° 0.5 mm 2 mps 687 mmHg 99%
16:00 +8°C° 0.2 mm 2 mps 687 mmHg 93%
17:00 +9°C° 0 mm 3 mps 687 mmHg 96%
18:00 +7°C° 0.5 mm 3 mps 686 mmHg 100%
19:00 +6°C° 0.3 mm 2 mps 686 mmHg 100%
20:00 +5°C° 0.7 mm 3 mps 686 mmHg 100%
21:00 +6°C° 0.1 mm 2 mps 686 mmHg 100%
22:00 +7°C° 0 mm 1 mps 686 mmHg 100%
23:00 +5°C° 0 mm 2 mps 686 mmHg 100%

Day after tomorrow, 18 April, Sunday

Time Temperature Precipitation Wind Pressure Humidity
00:00 +5°C° 0 mm 2 mps 686 mmHg 100%
01:00 +6°C° 0 mm 1 mps 686 mmHg 100%
02:00 +6°C° 0 mm 1 mps 686 mmHg 100%
03:00 +6°C° 0 mm 1 mps 686 mmHg 100%
04:00 +6°C° 0 mm 1 mps 685 mmHg 100%
05:00 +6°C° 0 mm 1 mps 685 mmHg 100%
06:00 +5°C° 0 mm 0 mps 685 mmHg 100%
07:00 +6°C° 0 mm 1 mps 685 mmHg 100%
08:00 +6°C° 0 mm 1 mps 685 mmHg 100%
09:00 +7°C° 0 mm 1 mps 685 mmHg 100%
10:00 +7°C° 0 mm 2 mps 686 mmHg 100%
11:00 +7°C° 0 mm 4 mps 686 mmHg 100%
12:00 +7°C° 0 mm 4 mps 686 mmHg 100%
13:00 +7°C° 0 mm 4 mps 686 mmHg 100%
14:00 +8°C° 0.1 mm 4 mps 686 mmHg 95%
15:00 +10°C° 0 mm 4 mps 686 mmHg 87%
16:00 +8°C° 0 mm 5 mps 685 mmHg 88%
17:00 +7°C° 1.2 mm 5 mps 685 mmHg 100%
18:00 +6°C° 0.3 mm 5 mps 685 mmHg 97%
19:00 +5°C° 0 mm 4 mps 684 mmHg 100%
20:00 +4°C° 0 mm 3 mps 684 mmHg 100%
21:00 +5°C° 0.1 mm 2 mps 684 mmHg 100%
22:00 +5°C° 1.5 mm 1 mps 684 mmHg 100%
23:00 +5°C° 0.9 mm 1 mps 684 mmHg 100%

19 April, Monday

Time Temperature Precipitation Wind Pressure Humidity
00:00 +5°C° 0.5 mm 1 mps 683 mmHg 100%
01:00 +5°C° 0.6 mm 1 mps 683 mmHg 100%
02:00 +5°C° 0.4 mm 1 mps 683 mmHg 100%
03:00 +5°C° 0.1 mm 1 mps 682 mmHg 100%
04:00 +5°C° 0 mm 1 mps 682 mmHg 100%
05:00 +4°C° 0 mm 1 mps 682 mmHg 100%
06:00 +4°C° 0 mm 1 mps 682 mmHg 100%
07:00 +4°C° 0 mm 1 mps 682 mmHg 100%
08:00 +5°C° 0 mm 1 mps 682 mmHg 100%
09:00 +5°C° 0 mm 1 mps 682 mmHg 100%
10:00 +5°C° 0 mm 2 mps 682 mmHg 100%
11:00 +5°C° 0.2 mm 2 mps 682 mmHg 100%
12:00 +5°C° 0.4 mm 3 mps 682 mmHg 100%
13:00 +7°C° 0.3 mm 4 mps 682 mmHg 100%
14:00 +8°C° 0.6 mm 4 mps 681 mmHg 100%
15:00 +8°C° 0 mm 4 mps 681 mmHg 100%
16:00 +8°C° 0.1 mm 5 mps 680 mmHg 100%
17:00 +8°C° 0.8 mm 5 mps 679 mmHg 100%
18:00 +6°C° 0.4 mm 4 mps 679 mmHg 100%
19:00 +6°C° 2.8 mm 5 mps 678 mmHg 100%
20:00 +6°C° 1.6 mm 5 mps 678 mmHg 100%
21:00 +4°C° 1.2 mm 6 mps 678 mmHg 100%
22:00 +5°C° 2.1 mm 5 mps 678 mmHg 100%
23:00 +5°C° 1.7 mm 5 mps 678 mmHg 100%

20 April, Tuesday

Time Temperature Precipitation Wind Pressure Humidity
00:00 +5°C° 0.3 mm 5 mps 677 mmHg 100%
01:00 +3°C° 0.2 mm 5 mps 677 mmHg 100%
02:00 +3°C° 0.1 mm 5 mps 677 mmHg 100%
03:00 +2°C° 0.1 mm 5 mps 676 mmHg 100%
04:00 +2°C° 0.1 mm 5 mps 676 mmHg 100%
05:00 +1°C° 0 mm 5 mps 676 mmHg 100%
06:00 +1°C° 0 mm 5 mps 675 mmHg 100%
07:00 +1°C° 0 mm 5 mps 676 mmHg 100%
08:00 +1°C° 0 mm 5 mps 676 mmHg 100%
09:00 +1°C° 0 mm 5 mps 676 mmHg 100%
10:00 +2°C° 0 mm 6 mps 676 mmHg 100%
11:00 +3°C° 0 mm 6 mps 676 mmHg 100%
12:00 +4°C° 0 mm 6 mps 677 mmHg 100%
13:00 +5°C° 0 mm 6 mps 677 mmHg 98%
14:00 +7°C° 0 mm 6 mps 677 mmHg 94%
15:00 +8°C° 0 mm 6 mps 677 mmHg 90%
16:00 +8°C° 0 mm 6 mps 678 mmHg 88%
17:00 +5°C° 0.1 mm 6 mps 678 mmHg 100%
18:00 +7°C° 0 mm 6 mps 678 mmHg 91%
19:00 +5°C° 0 mm 6 mps 678 mmHg 91%
20:00 +5°C° 0 mm 5 mps 678 mmHg 92%
21:00 +5°C° 0 mm 4 mps 679 mmHg 93%
22:00 +4°C° 0 mm 4 mps 679 mmHg 94%
23:00 +4°C° 0 mm 4 mps 679 mmHg 95%

21 April, Wednesday

Time Temperature Precipitation Wind Pressure Humidity
00:00 +3°C° 0 mm 3 mps 679 mmHg 95%
01:00 +4°C° 0 mm 2 mps 679 mmHg 96%
02:00 +4°C° 0 mm 2 mps 680 mmHg 97%
03:00 +2°C° 0 mm 3 mps 680 mmHg 98%
04:00 +3°C° 0 mm 2 mps 680 mmHg 97%
05:00 +3°C° 0 mm 2 mps 680 mmHg 96%
06:00 +2°C° 0 mm 3 mps 680 mmHg 95%
07:00 +3°C° 0 mm 3 mps 681 mmHg 97%
08:00 +4°C° 0 mm 3 mps 682 mmHg 94%
09:00 +6°C° 0 mm 4 mps 683 mmHg 91%
10:00 +7°C° 0 mm 4 mps 683 mmHg 89%
11:00 +7°C° 0 mm 4 mps 684 mmHg 89%
12:00 +8°C° 0 mm 5 mps 684 mmHg 87%
13:00 +8°C° 0 mm 5 mps 684 mmHg 87%
14:00 +9°C° 0 mm 5 mps 685 mmHg 84%
15:00 +9°C° 0 mm 5 mps 685 mmHg 84%
16:00 +10°C° 0 mm 4 mps 685 mmHg 80%
17:00 +10°C° 0 mm 4 mps 685 mmHg 80%
18:00 +10°C° 0 mm 3 mps 685 mmHg 84%
19:00 +9°C° 0 mm 3 mps 685 mmHg 87%
20:00 +8°C° 0 mm 3 mps 685 mmHg 91%
21:00 +7°C° 0 mm 3 mps 685 mmHg 94%
22:00 +5°C° 0 mm 3 mps 685 mmHg 98%
23:00 +4°C° 0 mm 4 mps 685 mmHg 100%
Show more